Weather History for Sidney-Richland, MT

Change the Weather History Date:

Saturday, March 30, 2013

  Actual Average Record
Temperature  
Mean Temperature 36 °F -  
Max Temperature 46 °F 53 °F 80 °F (1978)
Min Temperature 26 °F 23 °F -1 °F (1954)
Degree Days  
Heating Degree Days 29    
Moisture  
Dew Point 30 °F    
Average Humidity 80    
Maximum Humidity 100    
Minimum Humidity 65    
Precipitation  
Precipitation 0.00 in - - ()
Sea Level Pressure  
Sea Level Pressure 30.10 in    
Wind  
Wind Speed 5 mph (NW)    
Max Wind Speed 23 mph    
Max Gust Speed 28 mph    
Visibility 8 miles    
Events      
Averages and records for this station are not official NWS values.
T = Trace of Precipitation, MM = Missing Value Source: NWS Daily Summary

Daily Weather History Graph

Daily Weather History Graph

Search for Another Location

Airport:

Trip Planner

Search our weather history database for the weather conditions in past years. The results will help you decide how hot, cold, wet, or windy it might be!

Date:

Astronomy

Mar. 30, 2013 Rise Set
Actual Time 6:38 AM MDT 7:24 PM MDT
Civil Twilight 6:07 AM MDT 7:55 PM MDT
Nautical Twilight 5:30 AM MDT 8:32 PM MDT
Astronomical Twilight 4:51 AM MDT 9:11 PM MDT
Moon 11:51 PM MDT (3/30) 8:19 AM MDT (3/30)
Length of Visible Light 13h 47m
Length of Day
12h 45m
Waning Gibbous, 86% of the Moon is Illuminated
Mar 30
Waning Gibbous
Apr 2
Last Quarter
Apr 10
New
Apr 18
First Quarter
Apr 25
Full

Hourly Weather History & Observations

Time (MDT) Temp. Windchill Dew Point Humidity Pressure Visibility Wind Dir Wind Speed Gust Speed Precip Events Conditions
12:15 AM 32.0 °F 28.7 °F 28.4 °F 87% 30.06 in 5.0 mi NNW 3.5 mph - N/A   Clear
12:35 AM 32.0 °F - 32.0 °F 100% 30.07 in 4.0 mi Calm Calm - N/A   Clear
12:55 AM 33.8 °F - 30.2 °F 87% 30.07 in 5.0 mi Calm Calm - N/A   Clear
1:15 AM 32.0 °F - 30.2 °F 93% 30.07 in 4.0 mi Calm Calm - N/A   Clear
1:35 AM 33.8 °F - 30.2 °F 87% 30.08 in 4.0 mi Calm Calm - N/A   Clear
2:15 AM 33.8 °F 30.8 °F 32.0 °F 93% 30.08 in 6.0 mi NNW 3.5 mph - N/A   Clear
2:35 AM 33.8 °F 30.8 °F 30.2 °F 87% 30.08 in 5.0 mi NNW 3.5 mph - N/A   Clear
2:55 AM 30.2 °F - 28.4 °F 93% 30.08 in 4.0 mi Calm Calm - N/A   Clear
3:15 AM 30.2 °F - 28.4 °F 93% 30.09 in 5.0 mi Calm Calm - N/A   Clear
3:55 AM 28.4 °F - 26.6 °F 93% 30.08 in 5.0 mi Calm Calm - N/A   Clear
4:15 AM 30.2 °F - 26.6 °F 86% 30.08 in 6.0 mi Calm Calm - N/A   Clear
4:35 AM 30.2 °F - 28.4 °F 93% 30.08 in 5.0 mi Calm Calm - N/A   Clear
4:55 AM 28.4 °F 24.6 °F 24.8 °F 86% 30.08 in 5.0 mi WSW 3.5 mph - N/A   Clear
5:15 AM 28.4 °F - 26.6 °F 93% 30.08 in 5.0 mi Calm Calm - N/A   Clear
5:35 AM 32.0 °F - 28.4 °F 87% 30.09 in 4.0 mi Calm Calm - N/A   Clear
6:15 AM 28.4 °F - 26.6 °F 93% 30.09 in 3.0 mi Calm Calm - N/A   Clear
6:35 AM 30.2 °F - 28.4 °F 93% 30.09 in 5.0 mi Calm Calm - N/A   Clear
7:15 AM 26.6 °F 22.6 °F 24.8 °F 93% 30.10 in 0.2 mi South 3.5 mph - N/A   Overcast
7:35 AM 26.6 °F - 24.8 °F 93% 30.10 in 0.2 mi Calm Calm - N/A   Overcast
8:15 AM 30.2 °F - 28.4 °F 93% 30.11 in 3.0 mi Calm Calm - N/A   Clear
8:35 AM 30.2 °F - 30.2 °F 100% 30.11 in 2.5 mi Calm Calm - N/A   Clear
8:55 AM 30.2 °F 25.4 °F 30.2 °F 100% 30.11 in 3.0 mi South 4.6 mph - N/A   Clear
9:15 AM 33.8 °F 30.8 °F 30.2 °F 87% 30.11 in 3.0 mi South 3.5 mph - N/A   Clear
9:35 AM 33.8 °F 30.8 °F 30.2 °F 87% 30.10 in 5.0 mi South 3.5 mph - N/A   Clear
9:55 AM 35.6 °F 32.8 °F 32.0 °F 87% 30.10 in 7.0 mi South 3.5 mph - N/A   Clear
10:15 AM 35.6 °F - 32.0 °F 87% 30.10 in 9.0 mi Calm Calm - N/A   Clear
10:35 AM 37.4 °F - 33.8 °F 87% 30.11 in 10.0 mi Calm Calm - N/A   Clear
10:55 AM 39.2 °F 35.9 °F 35.6 °F 87% 30.10 in 10.0 mi South 4.6 mph - N/A   Clear
11:15 AM 42.8 °F - 37.4 °F 81% 30.10 in 10.0 mi Calm Calm - N/A   Clear
11:35 AM 42.8 °F 39.3 °F 35.6 °F 76% 30.10 in 10.0 mi NNW 5.8 mph - N/A   Clear
11:55 AM 42.8 °F 40.1 °F 35.6 °F 76% 30.10 in 10.0 mi NW 4.6 mph - N/A   Partly Cloudy
12:15 PM 44.6 °F 42.2 °F 35.6 °F 71% 30.09 in 10.0 mi NNW 4.6 mph - N/A   Clear
12:35 PM 44.6 °F 40.7 °F 35.6 °F 71% 30.09 in 10.0 mi NW 6.9 mph - N/A   Clear
12:55 PM 46.4 °F 40.1 °F 39.2 °F 76% 30.09 in 10.0 mi NNW 15.0 mph - N/A   Scattered Clouds
1:15 PM 44.6 °F 35.9 °F 37.4 °F 76% 30.11 in 10.0 mi NW 23.0 mph - N/A   Scattered Clouds
1:35 PM 42.8 °F 33.8 °F 32.0 °F 66% 30.11 in 10.0 mi NW 21.9 mph 27.6 mph N/A   Scattered Clouds
1:55 PM 42.8 °F 34.0 °F 33.8 °F 70% 30.11 in 10.0 mi NNW 20.7 mph 26.5 mph N/A   Overcast
2:15 PM 42.8 °F 34.3 °F 33.8 °F 70% 30.12 in 10.0 mi NNW 19.6 mph 25.3 mph N/A   Mostly Cloudy
2:35 PM 41.0 °F 32.5 °F 35.6 °F 81% 30.12 in 10.0 mi NW 17.3 mph 21.9 mph N/A   Overcast
2:56 PM 39.2 °F 34.2 °F 33.8 °F 81% 30.11 in 10.0 mi WNW 6.9 mph - N/A   Mostly Cloudy
3:15 PM 42.8 °F 37.5 °F 37.4 °F 81% 30.10 in 10.0 mi West 9.2 mph - N/A   Scattered Clouds
3:35 PM 44.6 °F 38.1 °F 37.4 °F 76% 30.10 in 10.0 mi West 13.8 mph 18.4 mph N/A   Clear
3:55 PM 44.6 °F 37.4 °F 37.4 °F 76% 30.10 in 10.0 mi WNW 16.1 mph 20.7 mph N/A   Clear
4:15 PM 46.4 °F 39.5 °F 35.6 °F 66% 30.10 in 10.0 mi NW 17.3 mph 25.3 mph N/A   Clear
4:35 PM 46.4 °F 38.5 °F 37.4 °F 71% 30.10 in 10.0 mi NW 21.9 mph 25.3 mph N/A   Clear
4:55 PM 44.6 °F 36.6 °F 35.6 °F 71% 30.10 in 10.0 mi NW 19.6 mph 25.3 mph N/A   Partly Cloudy
5:15 PM 44.6 °F 36.6 °F 33.8 °F 66% 30.10 in 10.0 mi NW 19.6 mph 27.6 mph N/A   Partly Cloudy
5:35 PM 42.8 °F 35.1 °F 33.8 °F 70% 30.11 in 10.0 mi NW 16.1 mph 25.3 mph N/A   Clear
5:55 PM 42.8 °F 35.4 °F 33.8 °F 70% 30.11 in 10.0 mi NNW 15.0 mph - N/A   Clear
6:15 PM 41.0 °F 33.9 °F 30.2 °F 65% 30.12 in 10.0 mi NNW 12.7 mph 20.7 mph N/A   Clear
6:35 PM 39.2 °F 32.0 °F 30.2 °F 70% 30.12 in 10.0 mi NW 11.5 mph - N/A   Clear
6:55 PM 39.2 °F 32.5 °F 28.4 °F 65% 30.12 in 10.0 mi NW 10.4 mph 17.3 mph N/A   Clear
7:15 PM 37.4 °F 32.1 °F 26.6 °F 65% 30.12 in 10.0 mi NW 6.9 mph - N/A   Clear
7:35 PM 35.6 °F 30.7 °F 28.4 °F 75% 30.12 in 10.0 mi NW 5.8 mph - N/A   Clear
7:55 PM 35.6 °F 28.6 °F 26.6 °F 70% 30.12 in 10.0 mi NW 9.2 mph - N/A   Clear
8:15 PM 35.6 °F 28.6 °F 26.6 °F 70% 30.12 in 10.0 mi WNW 9.2 mph - N/A   Clear
8:35 PM 35.6 °F 28.6 °F 26.6 °F 70% 30.12 in 10.0 mi NW 9.2 mph - N/A   Clear
8:55 PM 35.6 °F 28.6 °F 24.8 °F 65% 30.13 in 10.0 mi WNW 9.2 mph - N/A   Clear
9:15 PM 35.6 °F 29.2 °F 24.8 °F 65% 30.13 in 10.0 mi NW 8.1 mph - N/A   Clear
9:35 PM 35.6 °F 29.2 °F 24.8 °F 65% 30.13 in 10.0 mi NW 8.1 mph - N/A   Clear
9:55 PM 33.8 °F 28.6 °F 24.8 °F 70% 30.14 in 10.0 mi NW 5.8 mph - N/A   Clear
10:15 PM 33.8 °F 25.8 °F 24.8 °F 70% 30.14 in 10.0 mi NW 10.4 mph - N/A   Clear
10:35 PM 33.8 °F 26.4 °F 24.8 °F 70% 30.14 in 10.0 mi NW 9.2 mph - N/A   Clear
10:55 PM 33.8 °F 25.8 °F 24.8 °F 70% 30.13 in 10.0 mi NNW 10.4 mph - N/A   Partly Cloudy
11:35 PM 30.2 °F 24.3 °F 21.2 °F 69% 30.12 in 10.0 mi NNW 5.8 mph - N/A   Clear
11:55 PM 30.2 °F 24.3 °F 23.0 °F 75% 30.12 in 10.0 mi NNW 5.8 mph - N/A   Clear